TimeCST,TemperatureF,Dew PointF,Humidity,Sea Level PressureIn,VisibilityMPH,Wind Direction,Wind SpeedMPH,Gust SpeedMPH,PrecipitationIn,Events,Conditions,WindDirDegrees,DateUTC
12:56 AM,48.0,36.0,63,30.19,7.0,Calm,Calm,-,N/A,,Clear,0,2013-03-09 06:56:00
1:20 AM,46.4,32.0,57,30.20,2.0,Calm,Calm,-,N/A,,Haze,0,2013-03-09 07:20:00
1:56 AM,45.0,35.1,68,30.18,4.0,Calm,Calm,-,N/A,,Haze,0,2013-03-09 07:56:00
2:56 AM,45.0,36.0,71,30.17,6.0,Calm,Calm,-,N/A,,Haze,0,2013-03-09 08:56:00
3:56 AM,45.0,36.0,71,30.18,5.0,Calm,Calm,-,N/A,,Haze,0,2013-03-09 09:56:00
4:56 AM,45.0,37.0,74,30.20,7.0,ESE,3.5,-,N/A,,Clear,110,2013-03-09 10:56:00
5:56 AM,46.9,34.0,61,30.21,3.0,Calm,Calm,-,N/A,,Haze,0,2013-03-09 11:56:00
6:56 AM,48.0,36.0,63,30.22,4.0,ESE,3.5,-,N/A,,Haze,120,2013-03-09 12:56:00
7:56 AM,54.0,37.9,55,30.24,4.0,ESE,3.5,-,N/A,,Haze,110,2013-03-09 13:56:00
8:56 AM,61.0,37.9,42,30.25,6.0,SSE,9.2,-,N/A,,Haze,160,2013-03-09 14:56:00
9:56 AM,66.0,37.9,36,30.24,6.0,SE,11.5,16.1,N/A,,Haze,140,2013-03-09 15:56:00
10:56 AM,69.1,36.0,30,30.23,8.0,SE,11.5,-,N/A,,Clear,140,2013-03-09 16:56:00
11:56 AM,71.1,34.0,26,30.21,9.0,South,4.6,-,N/A,,Clear,170,2013-03-09 17:56:00
12:56 PM,73.9,35.1,24,30.18,10.0,SW,6.9,-,N/A,,Clear,230,2013-03-09 18:56:00
1:56 PM,73.0,37.0,27,30.16,10.0,Variable,5.8,-,N/A,,Clear,0,2013-03-09 19:56:00
2:56 PM,73.0,37.0,27,30.17,10.0,Variable,5.8,-,N/A,,Clear,0,2013-03-09 20:56:00
3:56 PM,73.0,37.0,27,30.15,10.0,SSE,5.8,-,N/A,,Clear,150,2013-03-09 21:56:00
4:56 PM,71.1,37.0,29,30.15,10.0,SE,9.2,-,N/A,,Clear,140,2013-03-09 22:56:00
5:56 PM,66.9,39.0,36,30.16,10.0,SSE,4.6,-,N/A,,Clear,160,2013-03-09 23:56:00
6:56 PM,64.9,43.0,45,30.16,8.0,Calm,Calm,-,N/A,,Clear,0,2013-03-10 00:56:00
7:56 PM,61.0,44.1,54,30.14,9.0,Calm,Calm,-,N/A,,Clear,0,2013-03-10 01:56:00
8:56 PM,61.0,45.0,56,30.13,9.0,South,4.6,-,N/A,,Clear,170,2013-03-10 02:56:00
9:56 PM,60.1,44.1,55,30.14,10.0,Calm,Calm,-,N/A,,Clear,0,2013-03-10 03:56:00
10:56 PM,55.9,43.0,62,30.12,9.0,SE,4.6,-,N/A,,Clear,130,2013-03-10 04:56:00
11:56 PM,55.0,43.0,64,30.10,9.0,SE,5.8,-,N/A,,Clear,130,2013-03-10 05:56:00